GEFSNGP_prec_meanprecacc_234.txt.gz
Total_Precipitation_Accumulation
0.06 0.15 0.21 0.23 0.21 0.18 0.14 0.13 0.25 0.28 0.37 0.47 0.63 0.60 0.59 0.55 0.48 0.48 0.56 0.54 0.51 0.49 0.53 0.54 0.59 0.59 0.58 0.60 0.63 0.79 1.16 1.36 1.33 1.29 1.29 1.26 1.27 1.36 1.42 1.48 1.53 1.75 1.93 2.03
0.10 0.14 0.15 0.16 0.19 0.18 0.13 0.11 0.10 0.16 0.30 0.35 0.56 0.69 0.67 0.65 0.62 0.59 0.58 0.54 0.51 0.44 0.52 0.60 0.65 0.66 0.64 0.65 0.68 0.80 1.05 1.26 1.25 1.22 1.21 1.15 1.20 1.30 1.45 1.56 1.72 1.90 1.92 1.90
0.15 0.19 0.17 0.24 0.20 0.17 0.15 0.14 0.15 0.23 0.36 0.36 0.41 0.57 0.68 0.66 0.61 0.56 0.59 0.52 0.51 0.53 0.63 0.82 0.74 0.73 0.78 0.71 0.71 0.83 1.03 1.20 1.28 1.25 1.27 1.25 1.22 1.39 1.58 1.75 1.91 2.02 1.98 1.92
0.21 0.25 0.36 0.28 0.21 0.22 0.25 0.28 0.28 0.32 0.36 0.39 0.50 0.57 0.70 0.86 0.71 0.56 0.59 0.61 0.67 0.65 0.72 0.80 0.77 0.80 0.83 0.82 0.80 0.90 1.08 1.29 1.37 1.31 1.37 1.45 1.45 1.54 1.76 1.98 2.12 2.14 2.10 2.01
0.31 0.34 0.41 0.37 0.30 0.34 0.38 0.43 0.45 0.48 0.42 0.47 0.53 0.63 0.76 0.72 0.71 0.74 0.72 0.72 0.78 0.86 0.88 0.94 0.95 0.90 0.89 0.97 0.99 1.06 1.15 1.31 1.41 1.45 1.53 1.56 1.60 1.78 2.00 2.19 2.24 2.22 2.26 2.15
0.44 0.52 0.59 0.58 0.43 0.37 0.44 0.76 0.61 0.63 0.62 0.55 0.57 0.82 0.93 0.78 0.70 0.70 0.80 0.88 0.85 0.91 0.96 0.98 1.01 1.05 1.05 1.12 1.27 1.40 1.48 1.54 1.71 1.87 2.03 2.10 2.15 2.23 2.28 2.37 2.33 2.33 2.27 2.24
0.65 0.76 0.70 0.56 0.50 0.43 0.82 1.16 0.86 0.83 0.81 0.72 0.82 0.93 0.92 0.79 0.72 0.67 0.71 0.84 0.90 0.89 0.98 1.06 1.07 1.17 1.32 1.41 1.52 1.65 1.78 1.85 2.03 2.33 2.49 2.48 2.49 2.44 2.37 2.38 2.40 2.37 2.27 2.23
0.88 1.11 1.17 0.65 0.60 0.92 1.16 1.00 1.02 1.03 1.00 0.93 0.90 0.96 0.96 0.92 0.75 0.68 0.69 0.76 0.86 0.91 0.96 1.12 1.35 1.53 1.77 1.86 1.83 1.93 2.08 2.22 2.39 2.61 2.55 2.47 2.64 2.57 2.54 2.60 2.57 2.44 2.33 2.23
1.14 1.34 1.14 0.80 0.92 1.10 1.09 1.05 1.08 1.05 0.99 0.89 0.84 0.99 0.94 0.85 0.81 0.68 0.66 0.73 0.82 0.90 1.01 1.17 1.44 1.80 2.05 2.10 2.21 2.24 2.32 2.44 2.50 2.55 2.69 2.83 2.88 2.77 2.69 2.66 2.58 2.39 2.27 2.14
1.37 1.45 1.23 1.07 1.06 1.02 1.06 1.07 1.03 0.94 0.89 0.88 0.83 0.84 0.84 0.77 0.75 0.71 0.70 0.78 0.82 0.91 1.08 1.33 1.55 1.86 2.02 2.08 2.12 2.15 2.18 2.17 2.23 2.35 2.46 2.55 2.79 2.85 2.75 2.61 2.53 2.46 2.36 2.19
1.74 1.82 1.68 1.55 1.32 1.15 1.13 1.09 1.12 1.07 0.97 0.93 0.86 0.80 0.75 0.74 0.73 0.72 0.72 0.81 0.89 0.98 1.10 1.24 1.44 1.65 1.75 1.90 1.98 2.11 2.13 2.07 2.03 2.05 2.16 2.24 2.33 2.43 2.40 2.37 2.19 2.10 2.00 1.93
2.01 1.75 1.69 1.82 1.57 1.36 1.30 1.27 1.31 1.33 1.28 1.12 0.99 0.91 0.85 0.82 0.75 0.71 0.70 0.79 0.89 1.00 1.13 1.23 1.40 1.61 1.70 1.84 1.91 1.97 1.97 1.90 1.91 1.91 1.99 2.03 2.01 1.93 1.77 1.69 1.54 1.39 1.33 1.27
1.66 1.57 1.55 1.67 1.56 1.51 1.58 1.62 1.61 1.54 1.36 1.12 0.97 0.93 0.85 0.77 0.72 0.72 0.78 0.90 1.03 1.08 1.18 1.31 1.41 1.56 1.73 1.88 1.99 2.05 1.94 1.79 1.68 1.65 1.72 1.73 1.77 1.87 1.91 1.69 1.48 1.28 1.14 1.00
1.52 1.68 1.88 1.92 1.87 1.72 1.72 1.80 1.74 1.49 1.36 1.23 1.07 0.99 0.91 0.79 0.73 0.72 0.75 0.87 1.00 1.06 1.08 1.18 1.37 1.48 1.64 1.81 1.90 1.96 1.88 1.77 1.66 1.63 1.68 1.71 1.74 1.81 1.92 1.90 1.64 1.29 1.13 1.02
1.63 1.65 1.85 1.98 1.91 1.90 1.86 1.84 1.86 1.69 1.46 1.40 1.32 1.18 1.07 1.03 0.98 0.90 0.87 0.92 1.05 1.13 1.16 1.19 1.31 1.39 1.55 1.79 1.82 1.78 1.73 1.65 1.59 1.60 1.61 1.63 1.72 1.78 1.79 1.82 1.70 1.46 1.22 0.99
1.96 1.79 1.82 1.91 1.86 1.81 1.75 1.70 1.68 1.65 1.50 1.38 1.31 1.23 1.10 1.06 1.08 1.02 1.01 1.12 1.32 1.35 1.31 1.32 1.34 1.37 1.54 1.76 1.78 1.70 1.60 1.48 1.37 1.38 1.41 1.40 1.45 1.53 1.53 1.57 1.53 1.41 1.25 0.98
1.95 1.98 1.92 1.78 1.70 1.67 1.60 1.47 1.41 1.40 1.48 1.45 1.27 1.12 1.01 0.92 0.97 1.07 1.17 1.23 1.31 1.29 1.28 1.32 1.29 1.26 1.40 1.61 1.73 1.70 1.54 1.33 1.08 0.98 1.06 1.17 1.28 1.36 1.35 1.34 1.35 1.31 1.13 0.86
1.61 1.69 1.66 1.55 1.48 1.44 1.42 1.32 1.22 1.15 1.21 1.25 1.12 1.03 1.00 0.99 1.10 1.24 1.38 1.39 1.32 1.21 1.16 1.15 1.10 1.14 1.29 1.38 1.46 1.52 1.43 1.29 1.10 0.98 1.01 1.07 1.15 1.26 1.27 1.21 1.19 1.14 1.02 0.81
1.41 1.35 1.36 1.33 1.26 1.19 1.14 1.09 1.09 1.03 1.01 1.07 1.04 1.00 1.07 1.14 1.26 1.36 1.42 1.56 1.59 1.41 1.20 1.07 1.04 1.03 1.16 1.19 1.24 1.35 1.34 1.27 1.15 1.05 1.07 1.06 1.10 1.18 1.15 1.08 1.03 0.98 0.91 0.80
1.41 1.30 1.32 1.26 1.16 1.09 1.00 0.94 0.92 0.88 0.94 1.00 1.03 1.05 1.20 1.31 1.45 1.58 1.61 1.65 1.67 1.54 1.25 1.04 0.93 0.94 1.00 1.05 1.12 1.13 1.18 1.14 1.02 0.96 0.98 1.01 0.98 1.00 0.96 0.92 0.88 0.85 0.80 0.77
1.37 1.38 1.35 1.34 1.24 1.06 0.94 0.89 0.88 0.89 0.95 1.03 1.10 1.15 1.30 1.44 1.54 1.70 1.87 1.85 1.60 1.45 1.24 1.04 0.89 0.87 0.87 0.95 1.01 1.02 1.08 1.10 1.02 0.94 0.92 0.93 0.91 0.90 0.87 0.85 0.82 0.77 0.74 0.72
1.17 1.24 1.21 1.17 1.10 1.03 0.95 0.93 0.92 0.95 1.04 1.11 1.16 1.21 1.33 1.44 1.55 1.67 1.71 1.84 1.70 1.54 1.22 0.98 0.85 0.81 0.81 0.88 0.87 0.94 0.97 0.99 0.95 0.88 0.84 0.84 0.84 0.89 0.88 0.81 0.76 0.71 0.70 0.70
1.05 1.07 1.07 1.04 1.02 1.02 0.96 0.93 0.96 0.99 1.10 1.20 1.29 1.35 1.42 1.43 1.53 1.87 1.93 1.72 1.60 1.47 1.14 0.97 0.93 0.87 0.83 0.81 0.83 0.88 0.88 0.90 0.90 0.81 0.74 0.74 0.79 0.86 0.91 0.88 0.84 0.75 0.71 0.68
1.06 0.99 0.98 0.96 0.93 0.98 0.98 0.94 0.97 1.05 1.10 1.14 1.18 1.24 1.37 1.43 1.40 1.49 1.72 1.80 1.64 1.43 1.13 1.04 0.96 0.85 0.79 0.77 0.90 0.93 0.90 0.89 0.87 0.76 0.67 0.66 0.71 0.82 0.88 0.89 0.87 0.81 0.77 0.74
1.10 0.99 0.89 0.89 0.94 1.03 1.06 1.08 1.15 1.18 1.17 1.14 1.04 1.06 1.21 1.35 1.45 1.41 1.39 1.46 1.50 1.32 1.14 1.07 0.99 0.94 0.80 0.76 0.89 0.98 0.97 0.95 0.88 0.77 0.70 0.74 0.79 0.84 0.84 0.83 0.80 0.75 0.76 0.78
1.12 1.02 0.99 0.91 0.91 0.99 1.10 1.23 1.40 1.41 1.37 1.36 1.19 1.04 1.07 1.08 1.11 1.16 1.21 1.25 1.25 1.23 1.13 1.09 1.00 0.95 0.87 0.84 0.89 1.00 1.08 1.12 0.98 0.87 0.86 0.91 0.90 0.86 0.86 0.81 0.74 0.73 0.69 0.67
1.01 0.99 0.98 0.94 0.96 1.00 1.11 1.23 1.43 1.50 1.45 1.47 1.32 1.09 0.99 0.95 0.93 0.98 1.04 1.13 1.14 1.15 1.15 1.10 1.00 0.91 0.86 0.86 0.88 0.93 1.01 1.07 1.03 0.97 0.92 0.92 0.95 0.94 0.88 0.81 0.77 0.74 0.70 0.66

GEFSNGP_prec_meanprecacc_240.txt.gz
Total_Precipitation_Accumulation
0.06 0.15 0.21 0.23 0.21 0.18 0.14 0.13 0.25 0.28 0.37 0.47 0.63 0.60 0.59 0.56 0.48 0.48 0.56 0.55 0.52 0.51 0.55 0.56 0.61 0.60 0.60 0.61 0.65 0.81 1.19 1.39 1.36 1.31 1.31 1.28 1.29 1.37 1.43 1.50 1.55 1.77 1.94 2.05
0.10 0.14 0.15 0.16 0.19 0.18 0.13 0.11 0.10 0.16 0.30 0.35 0.56 0.69 0.67 0.65 0.62 0.59 0.59 0.54 0.52 0.46 0.55 0.62 0.67 0.68 0.66 0.67 0.71 0.83 1.08 1.29 1.28 1.25 1.23 1.17 1.22 1.31 1.47 1.58 1.74 1.92 1.93 1.91
0.15 0.19 0.17 0.24 0.20 0.17 0.15 0.14 0.15 0.23 0.37 0.36 0.41 0.57 0.68 0.67 0.61 0.56 0.60 0.53 0.53 0.56 0.65 0.84 0.76 0.76 0.81 0.75 0.76 0.88 1.09 1.25 1.31 1.28 1.30 1.28 1.25 1.41 1.61 1.78 1.93 2.04 2.00 1.94
0.21 0.25 0.36 0.28 0.21 0.22 0.25 0.28 0.29 0.32 0.36 0.39 0.50 0.57 0.70 0.86 0.71 0.56 0.60 0.62 0.69 0.67 0.74 0.82 0.80 0.83 0.86 0.86 0.86 0.96 1.14 1.34 1.41 1.36 1.40 1.49 1.49 1.58 1.81 2.03 2.17 2.19 2.14 2.04
0.31 0.34 0.41 0.38 0.30 0.34 0.38 0.43 0.45 0.49 0.43 0.47 0.53 0.63 0.76 0.73 0.71 0.74 0.73 0.72 0.78 0.86 0.89 0.96 0.97 0.92 0.93 1.03 1.05 1.13 1.21 1.38 1.50 1.53 1.60 1.62 1.66 1.84 2.07 2.25 2.29 2.28 2.31 2.21
0.44 0.52 0.59 0.58 0.43 0.37 0.45 0.77 0.61 0.63 0.62 0.55 0.57 0.83 0.94 0.78 0.70 0.70 0.80 0.88 0.86 0.93 0.97 1.00 1.04 1.09 1.12 1.20 1.32 1.44 1.53 1.63 1.82 1.99 2.15 2.21 2.24 2.29 2.34 2.43 2.39 2.40 2.34 2.31
0.65 0.76 0.70 0.56 0.50 0.44 0.83 1.17 0.87 0.84 0.82 0.72 0.83 0.93 0.93 0.79 0.72 0.67 0.71 0.85 0.91 0.91 1.00 1.09 1.10 1.22 1.39 1.47 1.58 1.71 1.86 1.94 2.14 2.42 2.59 2.59 2.59 2.52 2.43 2.44 2.47 2.43 2.31 2.26
0.88 1.11 1.17 0.65 0.61 0.93 1.17 1.01 1.03 1.04 1.00 0.93 0.91 0.96 0.97 0.92 0.76 0.69 0.70 0.77 0.88 0.93 0.98 1.16 1.39 1.58 1.82 1.93 1.91 2.01 2.15 2.29 2.47 2.68 2.62 2.56 2.73 2.65 2.61 2.67 2.65 2.49 2.36 2.25
1.14 1.34 1.14 0.80 0.92 1.10 1.09 1.06 1.09 1.07 1.01 0.91 0.86 1.00 0.95 0.86 0.83 0.70 0.68 0.74 0.84 0.92 1.04 1.21 1.48 1.85 2.11 2.16 2.26 2.30 2.37 2.51 2.58 2.63 2.78 2.92 2.98 2.88 2.78 2.73 2.63 2.42 2.29 2.15
1.38 1.46 1.23 1.07 1.06 1.03 1.06 1.08 1.04 0.96 0.91 0.91 0.86 0.88 0.87 0.80 0.77 0.72 0.72 0.79 0.83 0.92 1.09 1.35 1.58 1.89 2.05 2.11 2.15 2.18 2.23 2.23 2.31 2.45 2.58 2.68 2.91 2.96 2.85 2.69 2.59 2.50 2.38 2.21
1.74 1.82 1.69 1.55 1.32 1.16 1.14 1.10 1.13 1.08 1.00 0.96 0.92 0.86 0.79 0.76 0.75 0.74 0.73 0.82 0.90 0.99 1.11 1.24 1.45 1.65 1.76 1.92 2.00 2.16 2.21 2.14 2.10 2.13 2.27 2.38 2.48 2.54 2.50 2.47 2.28 2.16 2.05 1.96
2.02 1.76 1.70 1.83 1.58 1.37 1.31 1.28 1.32 1.34 1.30 1.17 1.07 0.98 0.89 0.84 0.76 0.72 0.71 0.81 0.91 1.01 1.14 1.24 1.41 1.61 1.71 1.84 1.92 2.00 2.03 1.96 1.96 1.95 2.04 2.09 2.10 2.03 1.85 1.77 1.61 1.45 1.38 1.31
1.68 1.58 1.56 1.68 1.58 1.52 1.59 1.63 1.62 1.56 1.39 1.16 1.03 0.98 0.88 0.79 0.74 0.74 0.80 0.92 1.05 1.10 1.19 1.32 1.42 1.56 1.74 1.89 2.00 2.06 1.95 1.81 1.70 1.67 1.74 1.76 1.81 1.92 1.97 1.74 1.53 1.33 1.18 1.04
1.53 1.69 1.89 1.93 1.88 1.73 1.74 1.81 1.76 1.51 1.38 1.26 1.11 1.03 0.94 0.83 0.77 0.75 0.78 0.91 1.03 1.10 1.13 1.20 1.38 1.49 1.65 1.82 1.91 1.98 1.89 1.79 1.68 1.65 1.70 1.73 1.77 1.84 1.97 1.97 1.70 1.34 1.18 1.06
1.65 1.66 1.86 1.99 1.93 1.92 1.88 1.86 1.88 1.72 1.48 1.43 1.35 1.23 1.12 1.08 1.04 0.96 0.93 0.98 1.10 1.19 1.22 1.23 1.34 1.41 1.57 1.80 1.83 1.80 1.74 1.68 1.62 1.64 1.66 1.68 1.77 1.81 1.81 1.85 1.74 1.51 1.26 1.03
1.99 1.81 1.84 1.93 1.89 1.84 1.80 1.75 1.72 1.68 1.53 1.41 1.34 1.28 1.17 1.12 1.13 1.10 1.10 1.20 1.39 1.41 1.37 1.37 1.38 1.42 1.57 1.78 1.81 1.73 1.63 1.52 1.42 1.45 1.46 1.43 1.47 1.55 1.56 1.60 1.56 1.44 1.27 1.01
1.98 2.03 1.95 1.81 1.73 1.70 1.64 1.52 1.47 1.44 1.51 1.48 1.30 1.17 1.10 1.00 1.03 1.13 1.25 1.32 1.41 1.38 1.34 1.38 1.35 1.30 1.45 1.65 1.77 1.74 1.58 1.37 1.13 1.04 1.13 1.23 1.32 1.39 1.39 1.37 1.38 1.34 1.15 0.88
1.67 1.76 1.71 1.58 1.52 1.48 1.46 1.37 1.28 1.22 1.27 1.28 1.16 1.08 1.07 1.08 1.17 1.29 1.44 1.46 1.42 1.32 1.23 1.20 1.14 1.17 1.32 1.41 1.50 1.56 1.46 1.33 1.14 1.02 1.05 1.11 1.19 1.30 1.31 1.25 1.21 1.17 1.04 0.84
1.45 1.40 1.43 1.39 1.31 1.25 1.20 1.16 1.17 1.13 1.11 1.15 1.10 1.07 1.12 1.21 1.34 1.44 1.48 1.62 1.65 1.47 1.26 1.12 1.09 1.07 1.19 1.22 1.27 1.38 1.37 1.29 1.17 1.08 1.10 1.10 1.13 1.21 1.17 1.11 1.08 1.03 0.96 0.85
1.43 1.33 1.37 1.33 1.25 1.19 1.10 1.04 1.02 0.98 1.04 1.10 1.13 1.17 1.28 1.35 1.50 1.64 1.67 1.70 1.71 1.60 1.33 1.12 1.01 1.00 1.04 1.09 1.16 1.17 1.21 1.17 1.04 0.99 1.01 1.04 1.02 1.04 1.00 0.96 0.92 0.88 0.83 0.79
1.41 1.40 1.38 1.39 1.30 1.16 1.07 1.03 0.99 0.97 1.01 1.10 1.21 1.29 1.42 1.52 1.60 1.76 1.93 1.90 1.66 1.52 1.32 1.11 0.95 0.91 0.91 1.00 1.06 1.07 1.12 1.15 1.06 0.99 0.98 0.99 0.97 0.96 0.91 0.88 0.84 0.78 0.75 0.74
1.22 1.28 1.26 1.23 1.18 1.11 1.04 1.03 1.02 1.02 1.08 1.16 1.22 1.30 1.44 1.52 1.61 1.73 1.76 1.89 1.75 1.60 1.29 1.04 0.89 0.85 0.85 0.92 0.90 0.97 1.00 1.03 0.99 0.92 0.88 0.88 0.88 0.92 0.90 0.83 0.78 0.73 0.71 0.71
1.10 1.12 1.14 1.13 1.12 1.13 1.05 1.01 1.05 1.08 1.14 1.23 1.32 1.41 1.52 1.50 1.58 1.91 1.96 1.75 1.62 1.51 1.18 1.01 0.97 0.90 0.86 0.83 0.86 0.91 0.91 0.93 0.92 0.83 0.76 0.77 0.81 0.88 0.93 0.89 0.86 0.77 0.73 0.70
1.13 1.05 1.04 1.02 0.99 1.05 1.05 1.00 1.02 1.11 1.15 1.19 1.22 1.31 1.47 1.49 1.43 1.51 1.75 1.83 1.67 1.46 1.16 1.07 1.00 0.88 0.82 0.80 0.93 0.97 0.95 0.93 0.90 0.79 0.69 0.68 0.73 0.84 0.89 0.91 0.90 0.84 0.79 0.76
1.14 1.04 0.93 0.93 0.98 1.06 1.11 1.13 1.19 1.21 1.23 1.20 1.10 1.12 1.28 1.40 1.49 1.43 1.41 1.48 1.53 1.34 1.17 1.09 1.01 0.96 0.81 0.78 0.93 1.03 1.02 1.01 0.92 0.80 0.73 0.76 0.81 0.85 0.86 0.85 0.82 0.77 0.79 0.81
1.15 1.06 1.02 0.94 0.93 1.02 1.13 1.28 1.44 1.45 1.42 1.42 1.25 1.08 1.10 1.12 1.13 1.17 1.22 1.26 1.27 1.25 1.14 1.10 1.01 0.96 0.88 0.84 0.90 1.02 1.11 1.14 1.01 0.89 0.88 0.93 0.92 0.88 0.87 0.82 0.76 0.75 0.72 0.70
1.05 1.02 1.01 0.97 0.99 1.03 1.14 1.27 1.47 1.54 1.49 1.51 1.36 1.12 1.02 0.97 0.95 0.98 1.05 1.14 1.16 1.17 1.17 1.12 1.02 0.94 0.88 0.87 0.89 0.94 1.03 1.09 1.05 0.99 0.95 0.95 0.98 0.98 0.91 0.85 0.81 0.77 0.74 0.69

GEFSNGP_prec_meanprecacc_246.txt.gz
Total_Precipitation_Accumulation
0.06 0.15 0.21 0.23 0.21 0.18 0.14 0.13 0.25 0.28 0.37 0.47 0.63 0.60 0.59 0.56 0.49 0.49 0.57 0.56 0.53 0.52 0.56 0.56 0.61 0.61 0.60 0.62 0.66 0.84 1.23 1.42 1.38 1.34 1.35 1.31 1.31 1.40 1.47 1.52 1.57 1.78 1.95 2.05
0.10 0.14 0.15 0.16 0.19 0.18 0.13 0.11 0.10 0.16 0.30 0.35 0.56 0.69 0.67 0.65 0.62 0.60 0.59 0.55 0.52 0.46 0.55 0.62 0.67 0.69 0.68 0.70 0.73 0.86 1.13 1.35 1.34 1.31 1.28 1.21 1.26 1.34 1.49 1.60 1.76 1.93 1.95 1.93
0.15 0.19 0.17 0.24 0.20 0.17 0.15 0.14 0.15 0.23 0.37 0.36 0.41 0.57 0.68 0.67 0.61 0.57 0.60 0.53 0.53 0.56 0.66 0.84 0.76 0.77 0.83 0.78 0.79 0.92 1.15 1.32 1.38 1.33 1.33 1.30 1.27 1.42 1.62 1.79 1.95 2.07 2.04 1.97
0.21 0.25 0.36 0.28 0.21 0.22 0.25 0.28 0.29 0.32 0.36 0.39 0.50 0.57 0.70 0.86 0.72 0.56 0.60 0.62 0.70 0.67 0.74 0.82 0.80 0.83 0.87 0.88 0.90 1.01 1.19 1.38 1.44 1.38 1.43 1.51 1.50 1.59 1.83 2.05 2.19 2.22 2.18 2.08
0.31 0.34 0.41 0.38 0.30 0.34 0.38 0.43 0.45 0.49 0.43 0.47 0.53 0.63 0.77 0.73 0.71 0.74 0.73 0.72 0.79 0.86 0.89 0.96 0.97 0.92 0.94 1.06 1.08 1.16 1.24 1.41 1.51 1.55 1.62 1.64 1.68 1.86 2.09 2.27 2.31 2.30 2.33 2.23
0.44 0.52 0.59 0.58 0.43 0.37 0.45 0.77 0.61 0.63 0.62 0.55 0.57 0.83 0.94 0.78 0.71 0.71 0.81 0.89 0.87 0.93 0.97 1.01 1.04 1.09 1.12 1.22 1.34 1.46 1.55 1.64 1.83 2.02 2.19 2.24 2.26 2.31 2.35 2.45 2.41 2.41 2.35 2.32
0.65 0.76 0.71 0.56 0.50 0.44 0.84 1.17 0.87 0.84 0.82 0.72 0.83 0.94 0.93 0.80 0.73 0.68 0.71 0.85 0.92 0.91 1.00 1.09 1.11 1.22 1.40 1.48 1.59 1.73 1.88 1.96 2.15 2.45 2.62 2.62 2.61 2.53 2.45 2.47 2.50 2.48 2.36 2.28
0.89 1.11 1.17 0.65 0.61 0.93 1.18 1.01 1.03 1.04 1.01 0.94 0.91 0.97 0.97 0.93 0.77 0.70 0.70 0.78 0.89 0.93 0.98 1.16 1.39 1.58 1.83 1.94 1.92 2.03 2.17 2.31 2.49 2.70 2.64 2.58 2.76 2.68 2.64 2.70 2.67 2.53 2.39 2.27
1.14 1.34 1.15 0.80 0.93 1.10 1.09 1.06 1.10 1.07 1.01 0.91 0.86 1.01 0.96 0.87 0.84 0.70 0.68 0.75 0.84 0.92 1.04 1.21 1.48 1.86 2.11 2.17 2.27 2.31 2.39 2.53 2.61 2.67 2.81 2.95 3.02 2.92 2.81 2.76 2.67 2.46 2.32 2.18
1.38 1.46 1.23 1.07 1.06 1.03 1.06 1.08 1.04 0.97 0.92 0.92 0.87 0.88 0.88 0.81 0.78 0.73 0.72 0.80 0.84 0.93 1.10 1.35 1.58 1.89 2.06 2.12 2.16 2.20 2.24 2.25 2.34 2.48 2.61 2.71 2.95 3.01 2.91 2.76 2.65 2.55 2.43 2.25
1.75 1.83 1.69 1.56 1.33 1.16 1.14 1.10 1.13 1.09 1.00 0.97 0.93 0.87 0.80 0.77 0.75 0.74 0.74 0.83 0.90 0.99 1.11 1.25 1.45 1.66 1.77 1.92 2.01 2.16 2.21 2.15 2.11 2.14 2.28 2.40 2.52 2.61 2.57 2.54 2.36 2.24 2.11 2.01
2.03 1.76 1.70 1.83 1.59 1.38 1.32 1.29 1.32 1.34 1.31 1.17 1.07 0.99 0.90 0.85 0.76 0.73 0.72 0.82 0.91 1.02 1.15 1.25 1.41 1.62 1.71 1.85 1.93 2.01 2.04 1.97 1.97 1.96 2.04 2.10 2.11 2.05 1.88 1.79 1.64 1.49 1.42 1.36
1.70 1.60 1.57 1.69 1.59 1.54 1.61 1.65 1.64 1.57 1.40 1.16 1.04 0.98 0.89 0.80 0.75 0.75 0.81 0.93 1.06 1.11 1.21 1.33 1.43 1.57 1.75 1.90 2.02 2.07 1.96 1.82 1.71 1.68 1.75 1.76 1.82 1.94 2.00 1.76 1.55 1.36 1.22 1.09
1.55 1.72 1.92 1.95 1.90 1.75 1.75 1.83 1.77 1.52 1.39 1.27 1.12 1.04 0.95 0.84 0.78 0.77 0.80 0.92 1.04 1.11 1.13 1.21 1.39 1.50 1.66 1.84 1.93 1.99 1.90 1.80 1.69 1.66 1.71 1.75 1.79 1.87 2.01 2.00 1.72 1.36 1.20 1.09
1.68 1.69 1.88 2.01 1.95 1.94 1.89 1.88 1.90 1.73 1.50 1.44 1.36 1.23 1.13 1.09 1.05 0.98 0.95 1.00 1.12 1.21 1.24 1.25 1.36 1.43 1.59 1.82 1.85 1.81 1.75 1.69 1.64 1.67 1.68 1.70 1.81 1.85 1.85 1.88 1.77 1.54 1.29 1.07
2.01 1.83 1.86 1.96 1.91 1.85 1.81 1.76 1.74 1.69 1.54 1.42 1.34 1.28 1.19 1.15 1.16 1.12 1.13 1.24 1.43 1.44 1.40 1.41 1.41 1.44 1.59 1.80 1.84 1.76 1.65 1.55 1.45 1.48 1.49 1.45 1.49 1.56 1.57 1.62 1.58 1.47 1.32 1.05
2.00 2.05 1.97 1.83 1.75 1.71 1.65 1.53 1.48 1.45 1.52 1.49 1.31 1.18 1.12 1.03 1.05 1.15 1.27 1.36 1.45 1.42 1.38 1.41 1.37 1.33 1.47 1.68 1.81 1.78 1.61 1.39 1.15 1.06 1.14 1.25 1.35 1.41 1.41 1.40 1.41 1.37 1.19 0.92
1.70 1.78 1.73 1.60 1.53 1.49 1.47 1.38 1.29 1.22 1.27 1.29 1.17 1.10 1.09 1.11 1.20 1.32 1.47 1.50 1.47 1.38 1.29 1.23 1.17 1.20 1.35 1.43 1.52 1.59 1.50 1.36 1.17 1.04 1.07 1.13 1.21 1.33 1.34 1.28 1.24 1.19 1.07 0.87
1.47 1.42 1.45 1.40 1.32 1.25 1.20 1.16 1.18 1.14 1.12 1.16 1.12 1.09 1.14 1.23 1.37 1.47 1.52 1.66 1.70 1.53 1.32 1.17 1.13 1.11 1.22 1.24 1.30 1.42 1.40 1.34 1.23 1.14 1.17 1.15 1.18 1.25 1.21 1.15 1.11 1.06 0.98 0.87
1.44 1.34 1.38 1.34 1.26 1.19 1.11 1.05 1.03 1.00 1.06 1.13 1.16 1.21 1.32 1.39 1.53 1.67 1.72 1.75 1.77 1.66 1.37 1.16 1.06 1.03 1.07 1.12 1.18 1.20 1.24 1.21 1.10 1.05 1.09 1.13 1.10 1.10 1.05 1.00 0.95 0.91 0.86 0.83
1.42 1.41 1.39 1.39 1.31 1.17 1.10 1.05 1.01 1.00 1.05 1.15 1.25 1.33 1.47 1.56 1.64 1.79 1.98 1.96 1.74 1.59 1.37 1.16 1.00 0.95 0.95 1.04 1.11 1.11 1.16 1.18 1.10 1.04 1.04 1.05 1.04 1.02 0.97 0.93 0.89 0.82 0.79 0.76
1.24 1.30 1.27 1.24 1.19 1.12 1.07 1.07 1.05 1.06 1.12 1.20 1.26 1.35 1.48 1.55 1.65 1.76 1.79 1.92 1.79 1.65 1.34 1.09 0.95 0.92 0.92 0.99 0.96 1.02 1.04 1.06 1.02 0.97 0.93 0.94 0.94 0.98 0.96 0.88 0.82 0.76 0.75 0.75
1.12 1.14 1.15 1.15 1.14 1.14 1.07 1.05 1.09 1.14 1.21 1.29 1.37 1.45 1.55 1.53 1.62 1.94 1.99 1.78 1.65 1.53 1.21 1.05 1.02 0.95 0.92 0.88 0.90 0.95 0.95 0.97 0.96 0.87 0.81 0.82 0.86 0.93 0.97 0.93 0.89 0.81 0.77 0.74
1.16 1.07 1.06 1.05 1.02 1.08 1.07 1.04 1.07 1.18 1.21 1.23 1.26 1.34 1.50 1.52 1.46 1.54 1.77 1.86 1.69 1.48 1.18 1.09 1.02 0.91 0.85 0.84 0.98 1.02 0.99 0.96 0.93 0.81 0.72 0.70 0.76 0.87 0.93 0.95 0.94 0.89 0.84 0.81
1.18 1.07 0.95 0.95 1.01 1.10 1.15 1.17 1.23 1.26 1.27 1.22 1.13 1.17 1.35 1.47 1.52 1.45 1.43 1.49 1.54 1.36 1.18 1.10 1.02 0.97 0.82 0.79 0.95 1.06 1.05 1.04 0.95 0.83 0.76 0.79 0.84 0.89 0.89 0.88 0.85 0.82 0.84 0.85
1.20 1.10 1.05 0.97 0.96 1.05 1.17 1.32 1.48 1.48 1.45 1.45 1.29 1.13 1.19 1.23 1.19 1.19 1.24 1.28 1.29 1.28 1.17 1.12 1.03 0.97 0.89 0.86 0.92 1.04 1.13 1.16 1.03 0.91 0.90 0.95 0.94 0.91 0.90 0.86 0.81 0.80 0.77 0.74
1.10 1.07 1.06 1.00 1.01 1.05 1.16 1.31 1.51 1.57 1.53 1.56 1.42 1.20 1.13 1.10 1.01 1.01 1.07 1.16 1.19 1.20 1.19 1.14 1.04 0.95 0.89 0.88 0.90 0.95 1.04 1.10 1.06 1.01 0.96 0.97 1.00 1.00 0.94 0.88 0.85 0.81 0.77 0.72

GEFSNGP_prec_meanprecacc_252.txt.gz
Total_Precipitation_Accumulation
0.06 0.15 0.22 0.23 0.22 0.19 0.15 0.13 0.25 0.28 0.37 0.48 0.65 0.62 0.60 0.56 0.49 0.49 0.57 0.57 0.54 0.54 0.58 0.59 0.65 0.65 0.64 0.65 0.68 0.86 1.25 1.45 1.43 1.38 1.38 1.33 1.33 1.42 1.48 1.54 1.58 1.80 1.97 2.08
0.10 0.14 0.16 0.16 0.20 0.18 0.13 0.11 0.10 0.16 0.31 0.36 0.58 0.72 0.69 0.66 0.62 0.60 0.59 0.55 0.53 0.47 0.57 0.66 0.71 0.73 0.72 0.75 0.78 0.91 1.18 1.40 1.38 1.35 1.31 1.24 1.28 1.36 1.51 1.62 1.78 1.96 1.97 1.94
0.16 0.19 0.17 0.25 0.21 0.17 0.15 0.14 0.15 0.23 0.37 0.36 0.42 0.59 0.70 0.68 0.62 0.57 0.60 0.53 0.53 0.57 0.66 0.85 0.79 0.80 0.85 0.81 0.85 0.98 1.23 1.41 1.43 1.37 1.36 1.34 1.30 1.44 1.64 1.82 1.98 2.10 2.06 1.99
0.21 0.25 0.36 0.28 0.21 0.22 0.25 0.28 0.29 0.32 0.36 0.39 0.50 0.57 0.70 0.86 0.72 0.57 0.61 0.63 0.70 0.67 0.74 0.82 0.81 0.84 0.89 0.90 0.93 1.05 1.26 1.48 1.53 1.46 1.48 1.55 1.54 1.62 1.86 2.08 2.22 2.25 2.22 2.11
0.31 0.34 0.41 0.38 0.30 0.34 0.38 0.43 0.45 0.49 0.43 0.47 0.53 0.64 0.77 0.73 0.71 0.75 0.74 0.74 0.79 0.87 0.89 0.96 0.97 0.94 0.97 1.09 1.11 1.19 1.27 1.45 1.57 1.62 1.69 1.70 1.73 1.91 2.13 2.30 2.33 2.32 2.36 2.26
0.44 0.52 0.59 0.58 0.43 0.37 0.45 0.77 0.61 0.63 0.62 0.55 0.57 0.83 0.95 0.79 0.71 0.71 0.81 0.90 0.89 0.94 0.98 1.01 1.05 1.11 1.14 1.25 1.38 1.49 1.58 1.68 1.88 2.07 2.24 2.30 2.32 2.37 2.41 2.49 2.45 2.45 2.38 2.34
0.66 0.76 0.71 0.57 0.50 0.45 0.85 1.18 0.87 0.84 0.82 0.72 0.83 0.94 0.93 0.80 0.74 0.69 0.72 0.86 0.93 0.93 1.01 1.10 1.11 1.23 1.42 1.51 1.62 1.77 1.92 2.00 2.21 2.50 2.68 2.67 2.66 2.58 2.50 2.53 2.55 2.53 2.40 2.31
0.89 1.12 1.18 0.66 0.61 0.95 1.19 1.01 1.03 1.04 1.01 0.94 0.91 0.97 0.97 0.94 0.78 0.70 0.71 0.78 0.89 0.94 1.00 1.17 1.41 1.60 1.84 1.95 1.95 2.05 2.21 2.38 2.58 2.78 2.71 2.65 2.82 2.73 2.70 2.76 2.72 2.58 2.44 2.30
1.14 1.35 1.15 0.81 0.93 1.10 1.09 1.06 1.10 1.07 1.02 0.91 0.86 1.01 0.96 0.88 0.85 0.71 0.69 0.76 0.85 0.93 1.05 1.23 1.50 1.88 2.13 2.19 2.31 2.35 2.43 2.58 2.68 2.74 2.88 3.02 3.08 2.98 2.87 2.83 2.74 2.53 2.39 2.23
1.38 1.46 1.23 1.08 1.06 1.03 1.06 1.08 1.04 0.97 0.92 0.92 0.87 0.89 0.88 0.81 0.79 0.74 0.73 0.81 0.86 0.94 1.12 1.37 1.61 1.93 2.08 2.15 2.20 2.24 2.29 2.30 2.39 2.54 2.66 2.76 3.01 3.05 2.95 2.80 2.69 2.59 2.48 2.30
1.77 1.85 1.71 1.58 1.34 1.16 1.14 1.10 1.13 1.09 1.00 0.97 0.93 0.88 0.80 0.78 0.76 0.76 0.75 0.85 0.93 1.02 1.14 1.27 1.48 1.68 1.78 1.95 2.04 2.20 2.25 2.19 2.15 2.18 2.32 2.44 2.56 2.65 2.60 2.57 2.39 2.27 2.14 2.05
2.06 1.80 1.74 1.86 1.59 1.38 1.32 1.29 1.33 1.34 1.31 1.18 1.08 1.02 0.92 0.85 0.77 0.74 0.73 0.83 0.94 1.05 1.18 1.28 1.44 1.64 1.73 1.87 1.95 2.03 2.05 1.99 1.99 1.99 2.07 2.13 2.14 2.07 1.90 1.81 1.66 1.51 1.44 1.38
1.71 1.61 1.59 1.70 1.59 1.54 1.62 1.66 1.64 1.57 1.40 1.17 1.05 1.00 0.90 0.81 0.76 0.76 0.82 0.95 1.08 1.14 1.24 1.36 1.46 1.59 1.77 1.93 2.04 2.10 1.99 1.85 1.75 1.71 1.77 1.78 1.83 1.96 2.02 1.78 1.57 1.38 1.24 1.11
1.56 1.73 1.92 1.96 1.91 1.76 1.76 1.83 1.78 1.53 1.40 1.28 1.13 1.05 0.96 0.85 0.79 0.78 0.81 0.93 1.05 1.13 1.15 1.23 1.41 1.52 1.69 1.87 1.97 2.02 1.93 1.83 1.72 1.69 1.73 1.77 1.80 1.89 2.02 2.01 1.73 1.37 1.22 1.11
1.69 1.70 1.89 2.02 1.97 1.95 1.89 1.88 1.91 1.75 1.51 1.46 1.37 1.24 1.14 1.11 1.08 1.00 0.96 1.01 1.13 1.22 1.26 1.27 1.38 1.47 1.63 1.86 1.89 1.85 1.79 1.72 1.68 1.70 1.71 1.73 1.83 1.87 1.87 1.89 1.78 1.55 1.30 1.08
2.02 1.85 1.88 1.98 1.92 1.86 1.81 1.77 1.76 1.70 1.55 1.43 1.35 1.30 1.20 1.17 1.18 1.15 1.15 1.26 1.46 1.48 1.44 1.44 1.44 1.48 1.64 1.84 1.87 1.79 1.68 1.58 1.49 1.50 1.50 1.47 1.51 1.59 1.59 1.64 1.60 1.48 1.33 1.06
2.02 2.07 2.00 1.86 1.76 1.72 1.66 1.56 1.50 1.47 1.53 1.49 1.32 1.19 1.12 1.04 1.07 1.17 1.30 1.40 1.50 1.47 1.43 1.46 1.41 1.39 1.52 1.72 1.84 1.81 1.64 1.42 1.18 1.08 1.17 1.27 1.37 1.44 1.45 1.45 1.46 1.42 1.22 0.94
1.72 1.81 1.76 1.62 1.55 1.52 1.50 1.41 1.31 1.24 1.29 1.30 1.18 1.11 1.09 1.12 1.22 1.34 1.50 1.54 1.52 1.44 1.33 1.28 1.23 1.26 1.40 1.47 1.56 1.61 1.52 1.38 1.19 1.06 1.10 1.15 1.24 1.36 1.39 1.36 1.36 1.35 1.17 0.91
1.50 1.46 1.48 1.42 1.35 1.30 1.25 1.20 1.20 1.15 1.13 1.18 1.14 1.10 1.15 1.24 1.38 1.48 1.54 1.69 1.73 1.57 1.36 1.22 1.19 1.16 1.26 1.28 1.34 1.45 1.42 1.36 1.25 1.16 1.19 1.19 1.21 1.28 1.27 1.23 1.22 1.19 1.10 0.96
1.47 1.36 1.41 1.36 1.28 1.23 1.16 1.09 1.05 1.01 1.07 1.14 1.18 1.22 1.33 1.40 1.54 1.69 1.74 1.78 1.81 1.70 1.42 1.21 1.11 1.09 1.12 1.16 1.23 1.25 1.28 1.24 1.14 1.09 1.12 1.16 1.14 1.15 1.11 1.08 1.03 0.99 0.93 0.89
1.44 1.44 1.43 1.43 1.34 1.19 1.13 1.09 1.04 1.02 1.06 1.16 1.26 1.34 1.49 1.59 1.67 1.83 2.02 2.00 1.78 1.65 1.42 1.22 1.05 1.01 0.99 1.08 1.16 1.17 1.21 1.23 1.16 1.09 1.09 1.09 1.09 1.08 1.04 1.00 0.96 0.90 0.85 0.81
1.28 1.34 1.31 1.28 1.23 1.14 1.09 1.09 1.08 1.09 1.14 1.21 1.28 1.37 1.51 1.60 1.70 1.81 1.83 1.96 1.83 1.70 1.38 1.13 0.99 0.96 0.96 1.02 1.00 1.08 1.10 1.12 1.08 1.03 0.99 1.00 1.00 1.02 1.00 0.93 0.87 0.82 0.81 0.80
1.16 1.18 1.20 1.19 1.18 1.16 1.09 1.08 1.13 1.18 1.25 1.33 1.41 1.51 1.62 1.60 1.68 2.00 2.04 1.81 1.68 1.57 1.25 1.08 1.05 0.98 0.95 0.91 0.92 0.96 0.97 1.00 0.99 0.91 0.85 0.86 0.90 0.96 1.01 0.97 0.94 0.86 0.83 0.80
1.21 1.11 1.09 1.08 1.05 1.11 1.10 1.07 1.12 1.22 1.27 1.30 1.34 1.43 1.58 1.59 1.52 1.58 1.80 1.88 1.71 1.50 1.21 1.13 1.05 0.94 0.88 0.86 0.99 1.04 1.00 0.97 0.94 0.83 0.75 0.74 0.79 0.90 0.97 0.99 0.99 0.94 0.88 0.85
1.21 1.09 0.98 0.99 1.05 1.15 1.20 1.22 1.28 1.32 1.33 1.29 1.19 1.23 1.41 1.52 1.57 1.49 1.46 1.52 1.57 1.39 1.20 1.13 1.05 0.99 0.84 0.80 0.96 1.07 1.07 1.05 0.97 0.85 0.78 0.82 0.87 0.92 0.93 0.92 0.89 0.85 0.87 0.88
1.25 1.14 1.08 1.01 1.02 1.11 1.22 1.38 1.53 1.54 1.50 1.49 1.32 1.16 1.22 1.26 1.22 1.22 1.26 1.30 1.31 1.30 1.18 1.13 1.04 0.99 0.90 0.87 0.93 1.05 1.14 1.18 1.04 0.92 0.91 0.97 0.96 0.93 0.92 0.88 0.83 0.83 0.80 0.78
1.18 1.13 1.11 1.06 1.07 1.11 1.22 1.37 1.57 1.63 1.57 1.59 1.46 1.24 1.17 1.14 1.03 1.03 1.08 1.17 1.19 1.21 1.20 1.15 1.05 0.96 0.90 0.89 0.91 0.96 1.05 1.11 1.07 1.02 0.97 0.98 1.01 1.01 0.95 0.90 0.87 0.83 0.79 0.74

GEFSNGP_prec_meanprecacc_258.txt.gz
Total_Precipitation_Accumulation
0.06 0.15 0.23 0.25 0.22 0.19 0.15 0.14 0.26 0.29 0.40 0.49 0.67 0.64 0.63 0.61 0.55 0.53 0.64 0.60 0.57 0.56 0.61 0.63 0.69 0.70 0.70 0.74 0.76 0.93 1.34 1.57 1.53 1.44 1.44 1.38 1.37 1.45 1.50 1.56 1.60 1.82 1.99 2.10
0.10 0.14 0.16 0.17 0.20 0.18 0.13 0.12 0.11 0.17 0.32 0.37 0.61 0.75 0.73 0.73 0.70 0.64 0.64 0.60 0.56 0.49 0.59 0.68 0.75 0.78 0.80 0.86 0.91 1.01 1.29 1.54 1.51 1.43 1.38 1.30 1.32 1.39 1.53 1.64 1.81 1.98 1.99 1.96
0.16 0.19 0.18 0.25 0.21 0.17 0.15 0.15 0.15 0.24 0.37 0.37 0.45 0.62 0.73 0.75 0.71 0.65 0.66 0.58 0.56 0.59 0.69 0.88 0.82 0.84 0.91 0.87 0.92 1.07 1.33 1.54 1.57 1.49 1.46 1.40 1.35 1.49 1.68 1.85 2.01 2.13 2.09 2.01
0.21 0.25 0.36 0.28 0.21 0.22 0.25 0.28 0.29 0.32 0.37 0.40 0.51 0.58 0.71 0.89 0.74 0.60 0.64 0.66 0.72 0.69 0.76 0.85 0.83 0.87 0.93 0.96 0.99 1.12 1.34 1.57 1.64 1.59 1.61 1.68 1.65 1.72 1.92 2.13 2.27 2.29 2.25 2.14
0.31 0.34 0.41 0.38 0.30 0.34 0.38 0.44 0.46 0.49 0.43 0.48 0.54 0.64 0.79 0.75 0.73 0.76 0.76 0.78 0.82 0.89 0.92 0.99 1.00 0.96 0.99 1.13 1.16 1.24 1.32 1.53 1.65 1.70 1.77 1.81 1.85 2.05 2.21 2.35 2.37 2.36 2.41 2.31
0.44 0.52 0.59 0.59 0.44 0.38 0.46 0.78 0.62 0.64 0.63 0.56 0.58 0.84 0.96 0.80 0.72 0.72 0.82 0.92 0.92 0.98 1.01 1.04 1.07 1.13 1.17 1.28 1.41 1.53 1.61 1.70 1.91 2.12 2.30 2.39 2.45 2.47 2.49 2.55 2.50 2.50 2.44 2.44
0.66 0.76 0.71 0.57 0.51 0.46 0.86 1.19 0.88 0.85 0.82 0.73 0.84 0.94 0.94 0.80 0.74 0.69 0.73 0.87 0.95 0.97 1.06 1.13 1.15 1.27 1.46 1.54 1.65 1.79 1.94 2.02 2.24 2.58 2.78 2.78 2.82 2.70 2.58 2.58 2.60 2.60 2.49 2.41
0.89 1.12 1.18 0.66 0.61 0.96 1.21 1.02 1.03 1.05 1.02 0.94 0.91 0.97 0.98 0.94 0.78 0.71 0.72 0.79 0.91 0.98 1.05 1.21 1.45 1.64 1.89 1.98 1.97 2.08 2.23 2.40 2.65 2.93 2.82 2.75 2.91 2.79 2.74 2.80 2.76 2.64 2.52 2.42
1.15 1.36 1.16 0.81 0.93 1.11 1.10 1.07 1.10 1.08 1.03 0.92 0.87 1.02 0.97 0.89 0.85 0.72 0.70 0.77 0.87 0.96 1.11 1.28 1.55 1.95 2.18 2.22 2.34 2.38 2.46 2.61 2.72 2.80 2.93 3.06 3.12 3.00 2.89 2.86 2.78 2.58 2.45 2.29
1.41 1.48 1.24 1.08 1.07 1.04 1.07 1.09 1.05 0.98 0.93 0.93 0.88 0.90 0.89 0.82 0.80 0.74 0.74 0.82 0.88 0.97 1.14 1.40 1.66 2.00 2.14 2.19 2.24 2.26 2.31 2.32 2.41 2.56 2.68 2.79 3.05 3.10 2.98 2.81 2.70 2.61 2.51 2.34
1.81 1.89 1.74 1.59 1.36 1.20 1.17 1.12 1.16 1.12 1.03 0.99 0.94 0.89 0.82 0.78 0.77 0.77 0.77 0.87 0.96 1.06 1.17 1.31 1.54 1.76 1.85 1.99 2.06 2.22 2.27 2.20 2.16 2.20 2.34 2.46 2.59 2.68 2.63 2.60 2.41 2.29 2.16 2.06
2.11 1.86 1.80 1.92 1.66 1.43 1.36 1.34 1.36 1.37 1.33 1.20 1.11 1.04 0.95 0.86 0.78 0.75 0.75 0.85 0.96 1.08 1.23 1.35 1.51 1.69 1.79 1.92 1.99 2.06 2.08 2.01 2.00 2.01 2.10 2.16 2.17 2.09 1.93 1.84 1.69 1.53 1.46 1.40
1.78 1.70 1.66 1.79 1.70 1.61 1.66 1.75 1.73 1.62 1.43 1.20 1.07 1.03 0.95 0.83 0.77 0.78 0.84 0.97 1.12 1.18 1.32 1.47 1.53 1.65 1.82 1.97 2.07 2.12 2.01 1.86 1.76 1.73 1.79 1.80 1.85 1.98 2.03 1.79 1.58 1.39 1.25 1.13
1.66 1.85 2.04 2.06 2.01 1.83 1.80 1.91 1.86 1.60 1.45 1.33 1.16 1.08 1.00 0.89 0.83 0.81 0.84 0.96 1.10 1.18 1.21 1.29 1.45 1.55 1.73 1.91 1.99 2.05 1.95 1.85 1.73 1.71 1.74 1.78 1.82 1.91 2.04 2.02 1.74 1.38 1.24 1.14
1.84 1.80 1.97 2.10 2.04 2.01 1.94 1.93 1.95 1.78 1.55 1.51 1.43 1.28 1.19 1.17 1.14 1.09 1.04 1.04 1.17 1.27 1.30 1.31 1.41 1.49 1.66 1.90 1.92 1.87 1.80 1.73 1.69 1.72 1.73 1.75 1.86 1.91 1.89 1.92 1.81 1.58 1.34 1.13
2.20 1.95 1.97 2.09 2.02 1.93 1.86 1.81 1.78 1.73 1.58 1.47 1.42 1.35 1.26 1.24 1.26 1.22 1.26 1.32 1.50 1.54 1.52 1.52 1.51 1.53 1.69 1.89 1.92 1.83 1.71 1.60 1.50 1.52 1.52 1.49 1.53 1.62 1.63 1.68 1.65 1.56 1.43 1.16
2.16 2.18 2.12 1.98 1.86 1.81 1.72 1.59 1.53 1.50 1.56 1.52 1.34 1.23 1.19 1.11 1.13 1.23 1.34 1.43 1.53 1.51 1.47 1.52 1.48 1.45 1.58 1.77 1.89 1.86 1.67 1.43 1.19 1.10 1.19 1.29 1.39 1.47 1.49 1.50 1.54 1.50 1.32 1.05
1.82 1.89 1.88 1.74 1.66 1.61 1.56 1.44 1.33 1.27 1.33 1.33 1.20 1.13 1.12 1.17 1.26 1.36 1.52 1.56 1.55 1.47 1.37 1.32 1.27 1.31 1.44 1.51 1.61 1.67 1.56 1.41 1.21 1.09 1.12 1.18 1.27 1.40 1.44 1.40 1.39 1.38 1.26 1.05
1.61 1.58 1.61 1.50 1.41 1.36 1.31 1.23 1.23 1.19 1.16 1.20 1.16 1.12 1.17 1.26 1.40 1.51 1.57 1.72 1.77 1.62 1.41 1.26 1.24 1.22 1.33 1.36 1.43 1.53 1.50 1.43 1.31 1.21 1.24 1.23 1.25 1.33 1.31 1.26 1.24 1.21 1.15 1.05
1.59 1.48 1.51 1.44 1.34 1.28 1.20 1.12 1.09 1.06 1.11 1.17 1.20 1.25 1.36 1.42 1.56 1.71 1.77 1.82 1.85 1.74 1.46 1.26 1.17 1.17 1.22 1.27 1.33 1.33 1.35 1.31 1.21 1.16 1.18 1.21 1.19 1.20 1.17 1.13 1.08 1.03 0.98 0.94
1.51 1.51 1.51 1.51 1.41 1.24 1.16 1.12 1.09 1.07 1.10 1.18 1.28 1.36 1.51 1.61 1.69 1.85 2.04 2.02 1.80 1.67 1.45 1.25 1.10 1.07 1.07 1.16 1.23 1.23 1.27 1.29 1.23 1.17 1.17 1.18 1.18 1.17 1.13 1.08 1.03 0.96 0.91 0.87
1.33 1.40 1.38 1.35 1.28 1.19 1.12 1.11 1.11 1.13 1.16 1.23 1.29 1.39 1.54 1.62 1.72 1.83 1.85 1.98 1.86 1.73 1.40 1.15 1.01 0.98 0.99 1.08 1.05 1.13 1.16 1.18 1.15 1.12 1.10 1.10 1.08 1.10 1.08 1.00 0.94 0.88 0.86 0.86
1.22 1.24 1.26 1.25 1.22 1.21 1.13 1.10 1.16 1.22 1.28 1.35 1.43 1.53 1.64 1.64 1.71 2.03 2.07 1.84 1.71 1.60 1.27 1.11 1.08 1.00 0.99 0.95 0.96 1.01 1.04 1.06 1.06 0.97 0.91 0.93 0.96 1.02 1.08 1.04 1.01 0.93 0.91 0.89
1.26 1.18 1.16 1.14 1.10 1.15 1.14 1.10 1.15 1.26 1.32 1.34 1.37 1.46 1.61 1.64 1.58 1.62 1.83 1.90 1.73 1.52 1.23 1.15 1.09 0.98 0.92 0.90 1.03 1.09 1.07 1.06 1.03 0.90 0.81 0.79 0.84 0.96 1.02 1.05 1.06 1.03 0.99 0.95
1.26 1.15 1.05 1.05 1.11 1.20 1.23 1.25 1.31 1.36 1.38 1.34 1.24 1.29 1.45 1.56 1.61 1.53 1.50 1.56 1.61 1.42 1.24 1.17 1.09 1.05 0.90 0.85 0.99 1.11 1.11 1.11 1.03 0.90 0.82 0.86 0.90 0.95 0.96 0.96 0.94 0.91 0.91 0.93
1.31 1.19 1.13 1.05 1.06 1.15 1.26 1.40 1.56 1.58 1.53 1.53 1.37 1.22 1.28 1.32 1.28 1.27 1.32 1.35 1.36 1.34 1.22 1.16 1.08 1.04 0.96 0.92 0.98 1.09 1.18 1.22 1.07 0.95 0.93 0.99 0.98 0.95 0.95 0.92 0.88 0.89 0.86 0.83
1.24 1.18 1.14 1.08 1.10 1.13 1.25 1.40 1.61 1.67 1.62 1.63 1.49 1.27 1.22 1.19 1.08 1.08 1.13 1.22 1.24 1.25 1.24 1.19 1.08 0.99 0.93 0.93 0.97 1.00 1.09 1.15 1.10 1.04 1.00 1.01 1.03 1.04 0.98 0.92 0.89 0.86 0.82 0.77